FW8535 Weather Reports


time (UTC)temp
C
wind
direction
speed
KPH
gust
KPH
rain 1hr
cm
rain 24hr
cm
rain mn
cm
humidity
%
barometer
mb
20260902093032 13 182 0.0 0.0 0.00 0.00 0.00 76 1009.6
20260902092533 13 182 0.0 0.0 0.00 0.00 0.00 76 1009.7
20260902091541 14 182 0.0 0.0 0.00 0.00 0.00 73 1009.6
20260902091031 14 182 0.0 0.0 0.00 0.00 0.00 74 1009.5
20260902090527 14 182 0.0 3.2 0.00 0.00 0.00 73 1009.5
20260902090026 15 182 0.0 4.8 0.00 0.00 0.00 72 1009.4
20260902085525 15 182 0.0 4.8 0.00 0.00 0.00 71 1009.4
20260902085025 15 182 0.0 4.8 0.00 0.00 0.00 71 1009.6
20260902084524 15 182 1.6 4.8 0.00 0.00 0.00 71 1009.8
20260902084024 15 182 1.6 9.7 0.00 0.00 0.00 71 1009.6
20260902083524 15 183 4.8 12.9 0.00 0.00 0.00 71 1009.6
20260902083022 15 180 4.8 12.9 0.00 0.00 0.00 72 1009.8
20260902082522 15 160 1.6 8.0 0.00 0.00 0.00 71 1009.7
20260902081523 15 165 0.0 0.0 0.00 0.00 0.00 72 1009.8
20260902081022 15 165 0.0 4.8 0.00 0.00 0.00 72 1009.6
20260902080522 15 165 0.0 8.0 0.00 0.00 0.00 73 1009.8
20260902080021 15 165 4.8 6.4 0.00 0.00 0.00 72 1009.7
20260902075523 15 175 0.0 0.0 0.00 0.00 0.00 73 1009.8
20260902075019 15 175 0.0 3.2 0.00 0.00 0.00 72 1010.0
20260902074519 15 175 0.0 6.4 0.00 0.00 0.00 72 1009.9
20260902074019 15 175 1.6 6.4 0.00 0.00 0.00 71 1009.8
20260902073520 15 175 3.2 6.4 0.00 0.00 0.00 70 1009.9
20260902073019 15 175 3.2 6.4 0.00 0.00 0.00 70 1009.9
20260902072515 15 175 0.0 6.4 0.00 0.00 0.00 70 1010.0
20260902071524 16 178 0.0 4.8 0.00 0.00 0.00 67 1009.9
20260902071014 16 178 1.6 4.8 0.00 0.00 0.00 67 1009.8
20260902070511 16 178 0.0 6.4 0.00 0.00 0.00 66 1010.1
20260902070016 16 178 0.0 6.4 0.00 0.00 0.00 66 1010.0
20260902065510 16 180 1.6 4.8 0.00 0.00 0.00 66 1010.1
20260902065011 16 180 1.6 6.4 0.00 0.00 0.00 65 1010.1
20260902064508 17 180 1.6 6.4 0.00 0.00 0.00 65 1010.1
20260902064007 17 180 1.6 8.0 0.00 0.00 0.00 64 1010.2
20260902063506 17 180 3.2 8.0 0.00 0.00 0.00 64 1010.3
20260902063009 17 139 0.0 3.2 0.00 0.00 0.00 63 1010.1
20260902062508 17 139 1.6 4.8 0.00 0.00 0.00 63 1009.9
20260902061506 17 132 3.2 6.4 0.00 0.00 0.00 62 1010.0
20260902061007 17 132 0.0 4.8 0.00 0.00 0.00 62 1010.1
20260902060507 17 132 0.0 0.0 0.00 0.00 0.00 62 1010.2
20260902060014 18 132 0.0 0.0 0.00 0.00 0.00 62 1010.2
20260902055509 18 132 0.0 0.0 0.00 0.00 0.00 61 1010.2
20260902055006 18 132 0.0 0.0 0.00 0.00 0.00 61 1010.2
20260902054511 18 132 0.0 0.0 0.00 0.00 0.00 61 1010.2
20260902054006 18 132 0.0 1.6 0.00 0.00 0.00 60 1010.1
20260902053505 18 132 0.0 3.2 0.00 0.00 0.00 60 1010.2
20260902053010 19 132 0.0 3.2 0.00 0.00 0.00 59 1010.2
20260902052505 19 132 1.6 6.4 0.00 0.00 0.00 59 1010.0
20260902051505 20 134 3.2 11.3 0.00 0.00 0.00 58 1010.2
20260902051005 20 124 1.6 11.3 0.00 0.00 0.00 58 1010.1
20260902050508 20 125 6.4 11.3 0.00 0.00 0.00 59 1010.1
20260902050009 19 123 6.4 11.3 0.00 0.00 0.00 59 1010.1
20260902045505 20 133 1.6 6.4 0.00 0.00 0.00 58 1010.0
20260902045004 20 134 1.6 6.4 0.00 0.00 0.00 57 1010.2
20260902044506 20 132 3.2 8.0 0.00 0.00 0.00 56 1010.1
20260902044005 20 140 4.8 8.0 0.00 0.00 0.00 56 1010.1
20260902043504 21 148 3.2 9.7 0.00 0.00 0.00 55 1010.2
20260902043004 21 145 1.6 11.3 0.00 0.00 0.00 55 1010.2
20260902042504 21 219 3.2 14.5 0.00 0.00 0.00 55 1010.3
20260902041506 21 152 1.6 8.0 0.00 0.00 0.00 54 1010.2
20260902041002 21 152 3.2 8.0 0.00 0.00 0.00 53 1010.1
20260902040506 21 169 4.8 8.0 0.00 0.00 0.00 53 1010.2
20260902040002 21 143 4.8 11.3 0.00 0.00 0.00 53 1010.1
20260902035502 21 138 6.4 12.9 0.00 0.00 0.00 52 1010.0
20260902035002 22 134 6.4 12.9 0.00 0.00 0.00 52 1010.0
20260902034503 22 126 6.4 12.9 0.00 0.00 0.00 52 1010.1
20260902034004 22 139 6.4 12.9 0.00 0.00 0.00 51 1010.1
20260902033502 22 142 4.8 11.3 0.00 0.00 0.00 51 1010.0
20260902033002 22 134 6.4 11.3 0.00 0.00 0.00 51 1010.0
20260902032503 22 130 6.4 12.9 0.00 0.00 0.00 50 1009.9
20260902031502 22 126 6.4 16.1 0.00 0.00 0.00 50 1009.9
20260902031002 22 140 9.7 16.1 0.00 0.00 0.00 51 1009.8
20260902030502 22 129 1.6 8.0 0.00 0.00 0.00 51 1009.8
20260902030002 22 130 3.2 8.0 0.00 0.00 0.00 51 1009.7
20260902025601 22 154 3.2 8.0 0.00 0.00 0.00 50 1009.8
20260902025100 22 154 3.2 8.0 0.00 0.00 0.00 49 1009.6
20260902024601 22 154 3.2 8.0 0.00 0.00 0.00 48 1009.6
20260902024100 23 154 3.2 8.0 0.00 0.00 0.00 48 1009.4
20260902023600 23 153 0.0 8.0 0.00 0.00 0.00 47 1009.6
20260902023113 23 182 1.6 11.3 0.00 0.00 0.00 47 1009.4
20260902022600 23 150 4.8 12.9 0.00 0.00 0.00 47 1009.4
20260902021501 23 170 6.4 14.5 0.00 0.00 0.00 46 1009.5
20260902021001 23 150 3.2 11.3 0.00 0.00 0.00 46 1009.3
20260902020501 24 134 4.8 14.5 0.00 0.00 0.00 45 1009.3
20260902020001 24 150 6.4 16.1 0.00 0.00 0.00 45 1009.2
20260902015502 24 140 8.0 17.7 0.00 0.00 0.00 44 1009.3
20260902015002 25 134 9.7 17.7 0.00 0.00 0.00 44 1009.2
20260902014501 25 137 12.9 17.7 0.00 0.00 0.00 44 1009.2
20260902013604 25 131 11.3 17.7 0.00 0.00 0.00 43 1009.0
20260902013100 25 130 11.3 17.7 0.00 0.00 0.00 43 1009.2
20260902012559 25 142 11.3 17.7 0.00 0.00 0.00 43 1009.1
20260902011600 25 140 9.7 20.9 0.00 0.00 0.00 43 1009.1
20260902011101 25 140 9.7 17.7 0.00 0.00 0.00 42 1009.1
20260902010601 26 148 11.3 24.1 0.00 0.00 0.00 42 1009.1
20260902005601 26 146 16.1 24.1 0.00 0.00 0.00 41 1009.1
20260902005105 26 114 16.1 24.1 0.00 0.00 0.00 41 1009.2
20260902004600 26 134 12.9 24.1 0.00 0.00 0.00 41 1009.0
20260902004100 26 151 16.1 25.7 0.00 0.00 0.00 41 1008.9
20260902003559 26 145 17.7 29.0 0.00 0.00 0.00 41 1009.1
20260902003059 26 132 17.7 29.0 0.00 0.00 0.00 41 1008.9
20260902002558 26 122 16.1 29.0 0.00 0.00 0.00 40 1009.1
20260902001557 27 138 17.7 27.4 0.00 0.00 0.00 41 1009.1
20260902001057 27 140 17.7 27.4 0.00 0.00 0.00 40 1009.0
20260902000556 27 128 14.5 27.4 0.00 0.00 0.00 40 1009.1
20260902000059 27 140 16.1 27.4 0.00 0.00 0.00 40 1009.0
20260901235556 27 156 19.3 29.0 0.00 0.00 0.00 40 1009.2
20260901235056 27 142 20.9 29.0 0.00 0.00 0.00 38 1009.0
20260901234612 27 135 16.1 27.4 0.00 0.00 0.00 38 1009.1
20260901234056 27 141 19.3 27.4 0.00 0.00 0.00 38 1009.1
20260901233555 27 168 19.3 25.7 0.00 0.00 0.00 38 1009.2
20260901233058 27 138 17.7 25.7 0.00 0.00 0.00 38 1009.1
20260901232554 28 168 16.1 25.7 0.00 0.00 0.00 37 1009.1
20260901231553 28 148 14.5 22.5 0.00 0.00 0.00 35 1009.3
20260901231053 28 128 16.1 20.9 0.00 0.00 0.00 34 1009.3
20260901230553 28 122 9.7 20.9 0.00 0.00 0.00 34 1009.3
20260901230134 28 138 12.9 20.9 0.00 0.00 0.00 33 1009.3
20260901225553 28 124 14.5 24.1 0.00 0.00 0.00 33 1009.5
20260901225050 28 123 9.7 20.9 0.00 0.00 0.00 33 1009.4
20260901224549 28 98 11.3 20.9 0.00 0.00 0.00 32 1009.6
20260901224047 28 134 14.5 25.7 0.00 0.00 0.00 32 1009.6
20260901223548 28 128 16.1 25.7 0.00 0.00 0.00 32 1009.7
20260901223105 28 138 16.1 25.7 0.00 0.00 0.00 32 1009.9
20260901222546 28 162 12.9 22.5 0.00 0.00 0.00 32 1009.6
20260901221542 28 128 11.3 24.1 0.00 0.00 0.00 31 1009.8
20260901221042 28 132 16.1 24.1 0.00 0.00 0.00 31 1010.0
20260901220543 28 132 17.7 22.5 0.00 0.00 0.00 31 1009.9
20260901220051 28 102 11.3 19.3 0.00 0.00 0.00 33 1010.0
20260901215542 28 103 8.0 17.7 0.00 0.00 0.00 33 1010.1
20260901215041 28 101 9.7 17.7 0.00 0.00 0.00 34 1010.2
20260901214539 27 89 6.4 16.1 0.00 0.00 0.00 33 1010.2
20260901214039 27 118 4.8 20.9 0.00 0.00 0.00 33 1010.2
20260901213539 28 111 12.9 20.9 0.00 0.00 0.00 32 1010.3
20260901213045 28 105 8.0 19.3 0.00 0.00 0.00 32 1010.2
20260901212539 27 102 8.0 22.5 0.00 0.00 0.00 32 1010.3
20260901212039 28 136 12.9 22.5 0.00 0.00 0.00 31 1010.3
20260901211548 28 101 11.3 20.9 0.00 0.00 0.00 31 1010.4
20260901211039 28 110 12.9 22.5 0.00 0.00 0.00 32 1010.5
20260901210537 28 127 14.5 27.4 0.00 0.00 0.00 31 1010.6
20260901210038 28 130 14.5 27.4 0.00 0.00 0.00 30 1010.5
20260901205536 28 127 9.7 24.1 0.00 0.00 0.00 31 1010.5
20260901204543 28 140 19.3 27.4 0.00 0.00 0.00 31 1010.6
20260901204035 27 148 14.5 27.4 0.00 0.00 0.00 30 1010.8
20260901203535 27 126 12.9 30.6 0.00 0.00 0.00 31 1010.7
20260901203032 27 140 19.3 30.6 0.00 0.00 0.00 31 1010.8
20260901202531 27 137 11.3 22.5 0.00 0.00 0.00 31 1010.9
20260901202031 27 123 14.5 25.7 0.00 0.00 0.00 31 1011.0
20260901201531 27 101 8.0 16.1 0.00 0.00 0.00 31 1010.9
20260901201030 27 98 9.7 19.3 0.00 0.00 0.00 33 1011.0
20260901200531 27 100 9.7 22.5 0.00 0.00 0.00 33 1011.2
20260901200043 27 101 9.7 22.5 0.00 0.00 0.00 33 1011.3
20260901195528 27 133 9.7 22.5 0.00 0.00 0.00 33 1011.5
20260901194540 27 132 6.4 22.5 0.00 0.00 0.00 33 1011.4
20260901194030 27 131 17.7 22.5 0.00 0.00 0.00 32 1011.7
20260901193530 27 137 12.9 22.5 0.00 0.00 0.00 33 1011.7
20260901193029 26 115 9.7 22.5 0.00 0.00 0.00 33 1011.7
20260901192529 27 134 14.5 22.5 0.00 0.00 0.00 33 1011.8
20260901192028 26 111 6.4 16.1 0.00 0.00 0.00 34 1011.8
20260901191531 26 95 4.8 19.3 0.00 0.00 0.00 34 1011.9
20260901191027 26 133 12.9 19.3 0.00 0.00 0.00 33 1012.0
20260901190526 26 96 11.3 19.3 0.00 0.00 0.00 34 1012.0
20260901190030 26 99 9.7 17.7 0.00 0.00 0.00 35 1012.2
20260901185525 26 126 9.7 19.3 0.00 0.00 0.00 35 1012.3
20260901184522 26 104 6.4 16.1 0.00 0.00 0.00 35 1012.4
20260901184019 26 142 8.0 19.3 0.00 0.00 0.00 35 1012.2
20260901183518 26 119 9.7 20.9 0.00 0.00 0.00 35 1012.4
20260901183034 26 101 11.3 20.9 0.00 0.00 0.00 35 1012.5
20260901182515 26 90 4.8 16.1 0.00 0.00 0.00 36 1012.5
20260901182015 26 123 9.7 17.7 0.00 0.00 0.00 35 1012.5
20260901181514 26 99 9.7 17.7 0.00 0.00 0.00 36 1012.8
20260901181013 26 101 9.7 17.7 0.00 0.00 0.00 37 1012.8
20260901180512 25 113 8.0 17.7 0.00 0.00 0.00 38 1012.8
20260901180010 25 106 9.7 14.5 0.00 0.00 0.00 37 1012.8
20260901175512 25 123 9.7 19.3 0.00 0.00 0.00 38 1013.0
20260901174511 25 140 8.0 17.7 0.00 0.00 0.00 39 1013.1
20260901174016 24 112 8.0 17.7 0.00 0.00 0.00 39 1013.0
20260901173510 24 132 9.7 19.3 0.00 0.00 0.00 39 1013.1
20260901173009 24 128 11.3 19.3 0.00 0.00 0.00 40 1013.1
20260901172513 23 142 8.0 17.7 0.00 0.00 0.00 41 1013.2
20260901172008 24 142 14.5 19.3 0.00 0.00 0.00 41 1013.1
20260901171507 23 201 12.9 19.3 0.00 0.00 0.00 42 1013.3
20260901171007 23 144 9.7 16.1 0.00 0.00 0.00 43 1013.3
20260901170506 23 129 9.7 16.1 0.00 0.00 0.00 43 1013.3
20260901170006 23 136 9.7 16.1 0.00 0.00 0.00 43 1013.3
20260901165508 23 132 9.7 16.1 0.00 0.00 0.00 44 1013.2
20260901164509 23 128 8.0 14.5 0.00 0.00 0.00 45 1013.3
20260901164008 23 111 6.4 12.9 0.00 0.00 0.00 44 1013.3
20260901163506 22 113 6.4 11.3 0.00 0.00 0.00 45 1013.4
20260901163005 22 120 6.4 11.3 0.00 0.00 0.00 46 1013.3
20260901162504 22 91 4.8 9.7 0.00 0.00 0.00 47 1013.2
20260901162001 21 39 1.6 9.7 0.00 0.00 0.00 49 1013.2
20260901161607 21 36 1.6 9.7 0.00 0.00 0.00 49 1013.1
20260901161100 21 32 3.2 8.0 0.00 0.00 0.00 50 1013.1
20260901160558 20 36 1.6 9.7 0.00 0.00 0.00 49 1013.1
20260901160100 20 35 4.8 9.7 0.00 0.00 0.00 51 1013.1
20260901155556 20 26 0.0 6.4 0.00 0.00 0.00 52 1013.3
20260901155156 19 26 3.2 6.4 0.00 0.00 0.00 52 1013.2
20260901154555 19 26 1.6 6.4 0.00 0.00 0.00 53 1013.2
20260901154054 19 25 1.6 4.8 0.00 0.00 0.00 53 1013.4
20260901153553 18 25 0.0 6.4 0.00 0.00 0.00 54 1013.4
20260901153053 18 24 3.2 8.0 0.00 0.00 0.00 54 1013.3
20260901152552 18 21 1.6 4.8 0.00 0.00 0.00 54 1013.4
20260901152051 18 20 1.6 6.4 0.00 0.00 0.00 55 1013.3
20260901151553 18 20 0.0 6.4 0.00 0.00 0.00 55 1013.3
20260901151050 18 19 0.0 4.8 0.00 0.00 0.00 55 1013.4
20260901150548 17 18 1.6 4.8 0.00 0.00 0.00 55 1013.4
20260901150048 17 16 1.6 6.4 0.00 0.00 0.00 57 1013.5
20260901145548 17 16 3.2 6.4 0.00 0.00 0.00 56 1013.5
20260901144541 16 333 3.2 6.4 0.00 0.00 0.00 58 1013.4
20260901144040 16 325 4.8 6.4 0.00 0.00 0.00 58 1013.5
20260901143539 16 233 1.6 4.8 0.00 0.00 0.00 58 1013.7
20260901143043 16 233 0.0 4.8 0.00 0.00 0.00 59 1013.7
20260901142537 16 233 1.6 6.4 0.00 0.00 0.00 60 1013.9
20260901142034 15 233 1.6 6.4 0.00 0.00 0.00 61 1013.9
20260901141540 15 235 3.2 6.4 0.00 0.00 0.00 62 1013.9
20260901141034 14 238 1.6 4.8 0.00 0.00 0.00 64 1013.7
20260901140533 13 238 0.0 4.8 0.00 0.00 0.00 67 1013.7
20260901140034 12 238 0.0 3.2 0.00 0.00 0.00 70 1013.6
20260901135529 12 238 0.0 3.2 0.00 0.00 0.00 73 1013.8
20260901134528 10 238 1.6 4.8 0.00 0.00 0.00 75 1013.7
20260901134026 10 238 1.6 4.8 0.00 0.00 0.00 76 1013.8
20260901133526 10 238 0.0 0.0 0.00 0.00 0.00 77 1013.8
20260901133037 10 238 0.0 0.0 0.00 0.00 0.00 78 1013.9
20260901132532 9 238 0.0 0.0 0.00 0.00 0.00 78 1013.9
20260901132026 9 238 0.0 0.0 0.00 0.00 0.00 79 1013.9
20260901131529 8 238 0.0 0.0 0.00 0.00 0.00 80 1013.9
20260901131029 8 238 0.0 0.0 0.00 0.00 0.00 79 1013.9
20260901130524 8 238 0.0 0.0 0.00 0.00 0.00 80 1013.9
20260901130024 8 238 0.0 0.0 0.00 0.00 0.00 80 1013.9
20260901125524 8 238 0.0 0.0 0.00 0.00 0.00 80 1014.0
20260901124525 7 238 0.0 0.0 0.00 0.00 0.00 78 1013.8
20260901124023 7 238 0.0 0.0 0.00 0.00 0.00 77 1013.8
20260901123522 8 238 0.0 0.0 0.00 0.00 0.00 75 1013.8
20260901123022 8 238 0.0 0.0 0.00 0.00 0.00 77 1013.6
20260901122522 8 238 0.0 0.0 0.00 0.00 0.00 77 1013.6
20260901122021 8 238 0.0 0.0 0.00 0.00 0.00 78 1013.4
20260901121521 8 238 0.0 0.0 0.00 0.00 0.00 78 1013.4
20260901121021 8 238 0.0 0.0 0.00 0.00 0.00 77 1013.5
20260901120524 8 238 0.0 0.0 0.00 0.00 0.00 76 1013.5
20260901120019 8 238 0.0 0.0 0.00 0.00 0.00 76 1013.5
20260901115523 8 238 0.0 0.0 0.00 0.00 0.00 76 1013.5
20260901114519 9 238 0.0 3.2 0.00 0.00 0.00 76 1013.6
20260901114021 8 238 0.0 3.2 0.00 0.00 0.00 77 1013.6
20260901113519 8 238 0.0 3.2 0.00 0.00 0.00 77 1013.5
20260901113020 8 238 0.0 3.2 0.00 0.00 0.00 77 1013.5
20260901112518 8 238 0.0 3.2 0.00 0.00 0.00 76 1013.4
20260901112018 8 238 1.6 3.2 0.00 0.00 0.00 76 1013.4
20260901111518 8 238 0.0 3.2 0.00 0.00 0.00 76 1013.4
20260901111018 8 238 1.6 3.2 0.00 0.00 0.00 78 1013.4
20260901110517 8 238 0.0 1.6 0.00 0.00 0.00 78 1013.2
20260901110033 8 238 0.0 1.6 0.00 0.00 0.00 77 1013.3
20260901105516 8 238 0.0 4.8 0.00 0.00 0.00 77 1013.4
20260901104517 8 238 1.6 3.2 0.00 0.00 0.00 75 1013.2
20260901104018 8 238 0.0 3.2 0.00 0.00 0.00 75 1013.2
20260901103516 8 238 0.0 1.6 0.00 0.00 0.00 75 1013.3
20260901103015 8 238 0.0 1.6 0.00 0.00 0.00 75 1013.3
20260901102515 8 238 0.0 1.6 0.00 0.00 0.00 75 1013.2
20260901102015 9 238 0.0 1.6 0.00 0.00 0.00 74 1013.2
20260901101514 9 238 0.0 3.2 0.00 0.00 0.00 74 1013.4
20260901101013 9 238 1.6 4.8 0.00 0.00 0.00 74 1013.3
20260901100513 9 238 1.6 6.4 0.00 0.00 0.00 73 1013.4
20260901100012 9 242 1.6 3.2 0.00 0.00 0.00 74 1013.3
20260901095512 9 242 0.0 1.6 0.00 0.00 0.00 74 1013.3
20260901094515 9 242 0.0 3.2 0.00 0.00 0.00 73 1013.3
20260901094008 9 242 0.0 3.2 0.00 0.00 0.00 72 1013.2
20260901093507 10 242 0.0 3.2 0.00 0.00 0.00 72 1013.2